Location: Kumla
(59.1265°N, 15.1401°E)
Time: 23:48:57
(UTC+01:00)

Vanguard 1 - Pass Details

Date: 10 December 2023
Orbit: 653 x 3825 km, 34.3° (Epoch: 04 March)

Event Time Altitude Azimuth Distance (km) Brightness Sun altitude
Rises 17:15:27 0° 220° (SW) 5,394 14.9 -15.0°
Reaches altitude 10° 17:19:20 10° 208° (SSW) 4,832 14.3 -15.5°
Maximum altitude 17:30:32 27° 159° (SSE) 4,629 13.4 -16.8°
Drops below altitude 10° 17:46:02 10° 113° (ESE) 6,774 13.8 -18.8°
Enters shadow 17:47:32 - 111° (ESE) 7,028 13.9 -19.0°
